Time,TemperatureF,DewpointF,PressureIn,WindDirection,WindDirectionDegrees,WindSpeedMPH,WindSpeedGustMPH,Humidity,HourlyPrecipIn,Conditions,Clouds,dailyrainin,SoftwareType,DateUTC
2013-03-30 00:04:00,40.6,26.1,30.12,SSW,209,0.0,0.0,56,0.00,,,0.00,LWC V2.00 B2112,2013-03-30 04:04:00,
2013-03-30 00:09:00,40.5,25.6,30.12,SSW,209,0.0,0.0,55,0.00,,,0.00,LWC V2.00 B2112,2013-03-30 04:09:00,
2013-03-30 00:14:00,40.6,25.3,30.12,SSW,209,0.0,0.0,54,0.00,,,0.00,LWC V2.00 B2112,2013-03-30 04:14:00,
2013-03-30 00:19:00,40.8,25.5,30.12,SSW,209,0.0,0.0,54,0.00,,,0.00,LWC V2.00 B2112,2013-03-30 04:19:00,
2013-03-30 00:24:00,40.8,25.0,30.12,SSW,209,0.0,0.0,53,0.00,,,0.00,LWC V2.00 B2112,2013-03-30 04:24:00,
2013-03-30 00:29:00,40.9,25.1,30.11,SSW,209,0.0,0.0,53,0.00,,,0.00,LWC V2.00 B2112,2013-03-30 04:29:00,
2013-03-30 00:34:00,40.9,25.1,30.11,SSW,209,0.0,0.0,53,0.00,,,0.00,LWC V2.00 B2112,2013-03-30 04:34:00,
2013-03-30 00:39:00,41.2,25.8,30.11,SSW,209,0.0,0.0,54,0.00,,,0.00,LWC V2.00 B2112,2013-03-30 04:39:00,
2013-03-30 00:44:00,41.3,25.9,30.11,SSW,209,0.0,0.0,54,0.00,,,0.00,LWC V2.00 B2112,2013-03-30 04:44:00,
2013-03-30 00:49:00,41.3,25.9,30.11,SSW,209,0.0,0.0,54,0.00,,,0.00,LWC V2.00 B2112,2013-03-30 04:49:00,
2013-03-30 00:54:00,41.2,25.4,30.11,SSW,209,0.0,0.0,53,0.00,,,0.00,LWC V2.00 B2112,2013-03-30 04:54:00,
2013-03-30 00:59:00,41.2,25.4,30.10,SSW,209,0.0,0.0,53,0.00,,,0.00,LWC V2.00 B2112,2013-03-30 04:59:00,
2013-03-30 01:04:00,41.6,26.2,30.10,SSW,209,0.0,0.0,54,0.00,,,0.00,LWC V2.00 B2112,2013-03-30 05:04:00,
2013-03-30 01:09:00,41.5,25.7,30.10,SSW,209,0.0,0.0,53,0.00,,,0.00,LWC V2.00 B2112,2013-03-30 05:09:00,
2013-03-30 01:14:00,41.3,25.5,30.10,SSW,209,0.0,0.0,53,0.00,,,0.00,LWC V2.00 B2112,2013-03-30 05:14:00,
2013-03-30 01:19:00,41.2,26.3,30.10,SSW,209,0.0,0.0,55,0.00,,,0.00,LWC V2.00 B2112,2013-03-30 05:19:00,
2013-03-30 01:24:00,40.9,25.6,30.10,SSW,209,0.0,0.0,54,0.00,,,0.00,LWC V2.00 B2112,2013-03-30 05:24:00,
2013-03-30 01:29:00,40.6,25.7,30.10,SSW,209,0.0,0.0,55,0.00,,,0.00,LWC V2.00 B2112,2013-03-30 05:29:00,
2013-03-30 01:30:00,40.8,25.5,30.12,SSW,209,0.0,0.0,54,0.00,,,0.00,LWC V2.00 B2112,2013-03-30 05:30:00,
2013-03-30 01:40:00,41.2,23.5,30.08,North,0,0.0,0.0,49,0.00,,,0.00,LWC V2.00 B2112,2013-03-30 05:40:00,
2013-03-30 01:50:00,41.8,23.6,30.07,North,0,0.0,0.0,48,0.00,,,0.00,LWC V2.00 B2112,2013-03-30 05:50:00,
2013-03-30 02:00:00,41.9,23.7,30.07,North,0,0.0,0.0,48,0.00,,,0.00,LWC V2.00 B2112,2013-03-30 06:00:00,
2013-03-30 02:10:00,41.6,23.4,30.08,North,0,0.0,0.0,48,0.00,,,0.00,LWC V2.00 B2112,2013-03-30 06:10:00,
2013-03-30 02:20:00,41.3,23.6,30.08,North,0,0.0,0.0,49,0.00,,,0.00,LWC V2.00 B2112,2013-03-30 06:20:00,
2013-03-30 02:30:00,40.9,28.5,30.08,North,0,0.0,0.0,61,0.00,,,0.00,LWC V2.00 B2112,2013-03-30 06:30:00,
2013-03-30 02:40:00,39.6,28.4,30.08,North,0,0.0,0.0,64,0.00,,,0.00,LWC V2.00 B2112,2013-03-30 06:40:00,
2013-03-30 02:50:00,38.3,28.3,30.08,North,0,0.0,0.0,67,0.00,,,0.00,LWC V2.00 B2112,2013-03-30 06:50:00,
2013-03-30 03:00:00,37.6,28.0,30.08,North,0,0.0,0.0,68,0.00,,,0.00,LWC V2.00 B2112,2013-03-30 07:00:00,
2013-03-30 03:10:00,37.0,27.4,30.08,North,0,0.0,0.0,68,0.00,,,0.00,LWC V2.00 B2112,2013-03-30 07:10:00,
2013-03-30 03:20:00,36.9,28.4,30.09,North,0,0.0,0.0,71,0.00,,,0.00,LWC V2.00 B2112,2013-03-30 07:20:00,
2013-03-30 03:30:00,36.9,28.4,30.09,North,0,0.0,0.0,71,0.00,,,0.00,LWC V2.00 B2112,2013-03-30 07:30:00,
2013-03-30 03:40:00,37.0,28.8,30.09,North,0,0.0,0.0,72,0.00,,,0.00,LWC V2.00 B2112,2013-03-30 07:40:00,
2013-03-30 03:50:00,37.3,29.8,30.09,North,0,0.0,0.0,74,0.00,,,0.00,LWC V2.00 B2112,2013-03-30 07:50:00,
2013-03-30 04:00:00,37.6,29.1,30.09,North,0,0.0,0.0,71,0.00,,,0.00,LWC V2.00 B2112,2013-03-30 08:00:00,
2013-03-30 04:10:00,37.8,29.2,30.09,North,0,0.0,0.0,71,0.00,,,0.00,LWC V2.00 B2112,2013-03-30 08:10:00,
2013-03-30 04:20:00,37.9,29.0,30.09,North,0,0.0,0.0,70,0.00,,,0.00,LWC V2.00 B2112,2013-03-30 08:20:00,
2013-03-30 04:30:00,38.2,28.6,30.09,North,0,0.0,0.0,68,0.00,,,0.00,LWC V2.00 B2112,2013-03-30 08:30:00,
2013-03-30 04:40:00,38.2,29.6,30.09,North,0,0.0,0.0,71,0.00,,,0.00,LWC V2.00 B2112,2013-03-30 08:40:00,
2013-03-30 04:50:00,38.0,29.8,30.09,North,0,0.0,0.0,72,0.00,,,0.00,LWC V2.00 B2112,2013-03-30 08:50:00,
2013-03-30 05:00:00,38.0,29.1,30.10,North,0,0.0,0.0,70,0.00,,,0.00,LWC V2.00 B2112,2013-03-30 09:00:00,
2013-03-30 05:10:00,38.0,29.4,30.10,North,0,0.0,0.0,71,0.00,,,0.00,LWC V2.00 B2112,2013-03-30 09:10:00,
2013-03-30 05:20:00,38.2,29.3,30.11,North,0,0.0,0.0,70,0.00,,,0.00,LWC V2.00 B2112,2013-03-30 09:20:00,
2013-03-30 05:30:00,38.2,29.3,30.11,North,0,0.0,0.0,70,0.00,,,0.00,LWC V2.00 B2112,2013-03-30 09:30:00,
2013-03-30 05:40:00,38.5,28.9,30.11,North,0,0.0,0.0,68,0.00,,,0.00,LWC V2.00 B2112,2013-03-30 09:40:00,
2013-03-30 05:50:00,38.8,28.4,30.12,North,0,0.0,0.0,66,0.00,,,0.00,LWC V2.00 B2112,2013-03-30 09:50:00,
2013-03-30 06:00:00,38.9,29.2,30.12,North,0,0.0,0.0,68,0.00,,,0.00,LWC V2.00 B2112,2013-03-30 10:00:00,
2013-03-30 06:10:00,38.9,30.3,30.12,North,0,0.0,0.0,71,0.00,,,0.00,LWC V2.00 B2112,2013-03-30 10:10:00,
2013-03-30 06:20:00,38.9,29.6,30.13,North,0,0.0,0.0,69,0.00,,,0.00,LWC V2.00 B2112,2013-03-30 10:20:00,
2013-03-30 06:30:00,39.6,31.0,30.13,North,0,0.0,0.0,71,0.00,,,0.00,LWC V2.00 B2112,2013-03-30 10:30:00,
2013-03-30 06:40:00,40.5,31.9,30.13,North,0,0.0,0.0,71,0.00,,,0.00,LWC V2.00 B2112,2013-03-30 10:40:00,
2013-03-30 06:50:00,41.2,32.5,30.14,North,0,0.0,0.0,71,0.00,,,0.00,LWC V2.00 B2112,2013-03-30 10:50:00,
2013-03-30 07:00:00,41.6,33.3,30.14,North,0,0.0,0.0,72,0.00,,,0.00,LWC V2.00 B2112,2013-03-30 11:00:00,
2013-03-30 07:10:00,42.2,33.1,30.14,North,0,0.0,0.0,70,0.00,,,0.00,LWC V2.00 B2112,2013-03-30 11:10:00,
2013-03-30 07:20:00,42.9,31.2,30.15,North,0,0.0,0.0,63,0.00,,,0.00,LWC V2.00 B2112,2013-03-30 11:20:00,
2013-03-30 07:30:00,44.1,29.9,30.15,North,0,0.0,0.0,57,0.00,,,0.00,LWC V2.00 B2112,2013-03-30 11:30:00,
2013-03-30 07:40:00,44.9,29.7,30.15,North,0,0.0,0.0,55,0.00,,,0.00,LWC V2.00 B2112,2013-03-30 11:40:00,
2013-03-30 07:50:00,46.1,29.9,30.15,North,0,0.0,0.0,53,0.00,,,0.00,LWC V2.00 B2112,2013-03-30 11:50:00,
2013-03-30 08:00:00,46.7,30.5,30.15,North,0,0.0,0.0,53,0.00,,,0.00,LWC V2.00 B2112,2013-03-30 12:00:00,
2013-03-30 08:10:00,47.6,30.4,30.15,North,0,0.0,0.0,51,0.00,,,0.00,LWC V2.00 B2112,2013-03-30 12:10:00,
2013-03-30 08:20:00,48.3,30.0,30.15,North,0,0.0,0.0,49,0.00,,,0.00,LWC V2.00 B2112,2013-03-30 12:20:00,
2013-03-30 08:30:00,49.6,30.7,30.15,North,0,0.0,0.0,48,0.00,,,0.00,LWC V2.00 B2112,2013-03-30 12:30:00,
2013-03-30 08:40:00,50.4,32.0,30.15,North,0,0.0,0.0,49,0.00,,,0.00,LWC V2.00 B2112,2013-03-30 12:40:00,
2013-03-30 08:50:00,50.5,32.6,30.15,North,0,0.0,0.0,50,0.00,,,0.00,LWC V2.00 B2112,2013-03-30 12:50:00,
2013-03-30 09:00:00,52.3,31.6,30.15,North,0,0.0,0.0,45,0.00,,,0.00,LWC V2.00 B2112,2013-03-30 13:00:00,
2013-03-30 09:10:00,53.3,31.4,30.15,North,0,0.0,0.0,43,0.00,,,0.00,LWC V2.00 B2112,2013-03-30 13:10:00,
2013-03-30 09:20:00,55.6,33.5,30.15,North,0,0.0,0.0,43,0.00,,,0.00,LWC V2.00 B2112,2013-03-30 13:20:00,
2013-03-30 09:30:00,56.9,28.1,30.14,North,0,0.0,0.0,33,0.00,,,0.00,LWC V2.00 B2112,2013-03-30 13:30:00,
2013-03-30 09:40:00,57.8,30.3,30.14,North,0,0.0,0.0,35,0.00,,,0.00,LWC V2.00 B2112,2013-03-30 13:40:00,
2013-03-30 09:50:00,58.6,31.0,30.14,North,0,0.0,0.0,35,0.00,,,0.00,LWC V2.00 B2112,2013-03-30 13:50:00,
2013-03-30 10:00:00,58.9,30.6,30.13,North,0,0.0,0.0,34,0.00,,,0.00,LWC V2.00 B2112,2013-03-30 14:00:00,
2013-03-30 10:10:00,60.2,27.0,30.13,North,0,0.0,0.0,28,0.00,,,0.00,LWC V2.00 B2112,2013-03-30 14:10:00,
2013-03-30 10:20:00,60.4,27.2,30.13,North,0,0.0,0.0,28,0.00,,,0.00,LWC V2.00 B2112,2013-03-30 14:20:00,
2013-03-30 10:30:00,60.5,26.3,30.12,North,0,0.0,0.0,27,0.00,,,0.00,LWC V2.00 B2112,2013-03-30 14:30:00,
2013-03-30 10:40:00,61.0,27.7,30.12,North,0,0.0,0.0,28,0.00,,,0.00,LWC V2.00 B2112,2013-03-30 14:40:00,
2013-03-30 10:50:00,61.0,31.7,30.12,North,0,0.0,0.0,33,0.00,,,0.00,LWC V2.00 B2112,2013-03-30 14:50:00,
2013-03-30 11:00:00,62.4,28.0,30.10,North,0,0.0,0.0,27,0.00,,,0.00,LWC V2.00 B2112,2013-03-30 15:00:00,
2013-03-30 11:10:00,61.3,27.0,30.10,North,0,0.0,0.0,27,0.00,,,0.00,LWC V2.00 B2112,2013-03-30 15:10:00,
2013-03-30 11:20:00,61.3,27.0,30.10,North,0,0.0,0.0,27,0.00,,,0.00,LWC V2.00 B2112,2013-03-30 15:20:00,
2013-03-30 11:30:00,61.3,27.0,30.10,North,0,0.0,0.0,27,0.00,,,0.00,LWC V2.00 B2112,2013-03-30 15:30:00,
2013-03-30 11:40:00,61.3,27.0,30.10,North,0,0.0,0.0,27,0.00,,,0.00,LWC V2.00 B2112,2013-03-30 15:40:00,
2013-03-30 11:50:00,61.3,27.0,30.10,North,0,0.0,0.0,27,0.00,,,0.00,LWC V2.00 B2112,2013-03-30 15:50:00,
2013-03-30 12:00:00,61.3,27.0,30.10,North,0,0.0,0.0,27,0.00,,,0.00,LWC V2.00 B2112,2013-03-30 16:00:00,
2013-03-30 12:10:00,61.3,27.0,30.10,North,0,0.0,0.0,27,0.00,,,0.00,LWC V2.00 B2112,2013-03-30 16:10:00,
2013-03-30 12:20:00,61.3,27.0,30.10,North,0,0.0,0.0,27,0.00,,,0.00,LWC V2.00 B2112,2013-03-30 16:20:00,
2013-03-30 12:30:00,61.3,27.0,30.10,North,0,0.0,0.0,27,0.00,,,0.00,LWC V2.00 B2112,2013-03-30 16:30:00,
2013-03-30 12:48:00,61.8,30.0,30.10,ENE,73,0.0,0.0,30,0.00,,,0.00,LWC V2.00 B2112,2013-03-30 16:48:00,
2013-03-30 12:53:00,62.1,27.7,30.10,SW,232,0.0,0.0,27,0.00,,,0.00,LWC V2.00 B2112,2013-03-30 16:53:00,
2013-03-30 12:58:00,62.3,30.5,30.10,ESE,109,0.0,0.0,30,0.00,,,0.00,LWC V2.00 B2112,2013-03-30 16:58:00,
2013-03-30 13:03:00,62.7,32.4,30.09,ESE,109,0.0,0.0,32,0.00,,,0.00,LWC V2.00 B2112,2013-03-30 17:03:00,
2013-03-30 13:08:00,62.7,26.4,30.09,WSW,248,0.0,0.0,25,0.00,,,0.00,LWC V2.00 B2112,2013-03-30 17:08:00,
2013-03-30 13:13:00,62.4,28.9,30.09,SW,217,0.0,4.0,28,0.00,,,0.00,LWC V2.00 B2112,2013-03-30 17:13:00,
2013-03-30 13:18:00,62.4,27.1,30.08,SW,219,0.0,0.0,26,0.00,,,0.00,LWC V2.00 B2112,2013-03-30 17:18:00,
2013-03-30 13:23:00,62.4,26.1,30.08,ENE,71,0.0,0.0,25,0.00,,,0.00,LWC V2.00 B2112,2013-03-30 17:23:00,
2013-03-30 13:28:00,62.9,31.8,30.08,WSW,237,6.0,6.0,31,0.00,,,0.00,LWC V2.00 B2112,2013-03-30 17:28:00,
2013-03-30 13:33:00,63.1,28.6,30.07,West,265,0.0,0.0,27,0.00,,,0.00,LWC V2.00 B2112,2013-03-30 17:33:00,
2013-03-30 13:38:00,62.9,26.5,30.07,ESE,123,0.0,0.0,25,0.00,,,0.00,LWC V2.00 B2112,2013-03-30 17:38:00,
2013-03-30 13:43:00,63.2,28.7,30.07,West,276,0.0,0.0,27,0.00,,,0.00,LWC V2.00 B2112,2013-03-30 17:43:00,
2013-03-30 13:48:00,63.4,28.8,30.07,SSE,158,0.0,0.0,27,0.00,,,0.00,LWC V2.00 B2112,2013-03-30 17:48:00,
2013-03-30 13:53:00,63.5,29.8,30.07,SW,236,0.0,0.0,28,0.00,,,0.00,LWC V2.00 B2112,2013-03-30 17:53:00,
2013-03-30 13:58:00,63.9,26.4,30.07,SE,131,0.0,0.0,24,0.00,,,0.00,LWC V2.00 B2112,2013-03-30 17:58:00,
2013-03-30 14:03:00,63.9,27.4,30.06,SSE,164,0.0,0.0,25,0.00,,,0.00,LWC V2.00 B2112,2013-03-30 18:03:00,
2013-03-30 14:08:00,63.9,29.3,30.06,East,80,0.0,0.0,27,0.00,,,0.00,LWC V2.00 B2112,2013-03-30 18:08:00,
2013-03-30 14:13:00,64.2,30.4,30.06,East,81,0.0,0.0,28,0.00,,,0.00,LWC V2.00 B2112,2013-03-30 18:13:00,
2013-03-30 14:18:00,63.9,29.3,30.06,East,81,0.0,0.0,27,0.00,,,0.00,LWC V2.00 B2112,2013-03-30 18:18:00,
2013-03-30 14:23:00,63.4,27.9,30.06,East,93,0.0,0.0,26,0.00,,,0.00,LWC V2.00 B2112,2013-03-30 18:23:00,
2013-03-30 14:28:00,63.7,30.0,30.06,South,174,0.0,1.0,28,0.00,,,0.00,LWC V2.00 B2112,2013-03-30 18:28:00,
2013-03-30 14:33:00,63.9,27.4,30.06,SW,230,0.0,1.0,25,0.00,,,0.00,LWC V2.00 B2112,2013-03-30 18:33:00,
2013-03-30 14:38:00,63.7,28.2,30.06,South,175,0.0,0.0,26,0.00,,,0.00,LWC V2.00 B2112,2013-03-30 18:38:00,
2013-03-30 14:43:00,64.0,30.2,30.06,SSW,205,0.0,0.0,28,0.00,,,0.00,LWC V2.00 B2112,2013-03-30 18:43:00,
2013-03-30 14:48:00,64.2,31.3,30.04,NE,41,0.0,0.0,29,0.00,,,0.00,LWC V2.00 B2112,2013-03-30 18:48:00,
2013-03-30 14:53:00,64.5,28.9,30.04,North,359,0.0,0.0,26,0.00,,,0.00,LWC V2.00 B2112,2013-03-30 18:53:00,
2013-03-30 14:58:00,64.7,29.9,30.04,ESE,110,0.0,0.0,27,0.00,,,0.00,LWC V2.00 B2112,2013-03-30 18:58:00,
2013-03-30 15:03:00,65.2,29.5,30.03,SW,217,0.0,0.0,26,0.00,,,0.00,LWC V2.00 B2112,2013-03-30 19:03:00,
2013-03-30 15:08:00,65.2,28.5,30.03,West,263,5.0,5.0,25,0.00,,,0.00,LWC V2.00 B2112,2013-03-30 19:08:00,
2013-03-30 15:13:00,65.2,27.5,30.03,SW,221,0.0,1.0,24,0.00,,,0.00,LWC V2.00 B2112,2013-03-30 19:13:00,
2013-03-30 15:18:00,65.2,29.5,30.04,West,260,0.0,2.0,26,0.00,,,0.00,LWC V2.00 B2112,2013-03-30 19:18:00,
2013-03-30 15:23:00,65.3,29.5,30.04,NE,37,0.0,0.0,26,0.00,,,0.00,LWC V2.00 B2112,2013-03-30 19:23:00,
2013-03-30 15:28:00,65.3,30.5,30.04,ENE,70,0.0,0.0,27,0.00,,,0.00,LWC V2.00 B2112,2013-03-30 19:28:00,
2013-03-30 15:33:00,65.6,27.8,30.03,SW,234,0.0,0.0,24,0.00,,,0.00,LWC V2.00 B2112,2013-03-30 19:33:00,
2013-03-30 15:38:00,66.1,29.3,30.03,SW,230,0.0,0.0,25,0.00,,,0.00,LWC V2.00 B2112,2013-03-30 19:38:00,
2013-03-30 15:43:00,66.1,30.2,30.03,East,96,0.0,0.0,26,0.00,,,0.00,LWC V2.00 B2112,2013-03-30 19:43:00,
2013-03-30 15:48:00,65.8,30.0,30.02,SW,231,0.0,3.0,26,0.00,,,0.00,LWC V2.00 B2112,2013-03-30 19:48:00,
2013-03-30 15:53:00,65.3,28.6,30.02,East,84,0.0,0.0,25,0.00,,,0.00,LWC V2.00 B2112,2013-03-30 19:53:00,
2013-03-30 15:58:00,65.0,28.3,30.02,East,84,0.0,0.0,25,0.00,,,0.00,LWC V2.00 B2112,2013-03-30 19:58:00,
2013-03-30 16:03:00,65.3,28.6,30.02,ESE,115,0.0,0.0,25,0.00,,,0.00,LWC V2.00 B2112,2013-03-30 20:03:00,
2013-03-30 16:08:00,65.5,29.7,30.02,ESE,114,0.0,0.0,26,0.00,,,0.00,LWC V2.00 B2112,2013-03-30 20:08:00,
2013-03-30 16:13:00,65.8,31.8,30.02,East,97,0.0,0.0,28,0.00,,,0.00,LWC V2.00 B2112,2013-03-30 20:13:00,
2013-03-30 16:18:00,65.5,29.7,30.02,SE,126,0.0,0.0,26,0.00,,,0.00,LWC V2.00 B2112,2013-03-30 20:18:00,
2013-03-30 16:23:00,65.3,31.4,30.02,East,97,0.0,0.0,28,0.00,,,0.00,LWC V2.00 B2112,2013-03-30 20:23:00,
2013-03-30 16:28:00,65.5,28.7,30.02,East,97,0.0,0.0,25,0.00,,,0.00,LWC V2.00 B2112,2013-03-30 20:28:00,
2013-03-30 16:33:00,65.6,31.6,30.01,SW,232,2.0,2.0,28,0.00,,,0.00,LWC V2.00 B2112,2013-03-30 20:33:00,
2013-03-30 16:38:00,65.8,30.0,30.01,East,91,0.0,0.0,26,0.00,,,0.00,LWC V2.00 B2112,2013-03-30 20:38:00,
2013-03-30 16:43:00,65.6,27.8,30.01,WNW,297,0.0,0.0,24,0.00,,,0.00,LWC V2.00 B2112,2013-03-30 20:43:00,
2013-03-30 16:48:00,65.6,27.8,30.01,ESE,112,0.0,0.0,24,0.00,,,0.00,LWC V2.00 B2112,2013-03-30 20:48:00,
2013-03-30 16:53:00,65.5,31.5,30.01,ESE,112,0.0,0.0,28,0.00,,,0.00,LWC V2.00 B2112,2013-03-30 20:53:00,
2013-03-30 16:58:00,66.0,31.1,30.01,SSW,208,0.0,0.0,27,0.00,,,0.00,LWC V2.00 B2112,2013-03-30 20:58:00,
2013-03-30 17:03:00,66.4,30.5,30.01,SSW,209,0.0,0.0,26,0.00,,,0.00,LWC V2.00 B2112,2013-03-30 21:03:00,
2013-03-30 17:08:00,65.8,31.8,30.01,WSW,248,0.0,0.0,28,0.00,,,0.00,LWC V2.00 B2112,2013-03-30 21:08:00,
2013-03-30 17:13:00,65.6,28.8,30.01,SW,224,0.0,5.0,25,0.00,,,0.00,LWC V2.00 B2112,2013-03-30 21:13:00,
2013-03-30 17:18:00,65.6,31.6,30.01,SSW,199,0.0,0.0,28,0.00,,,0.00,LWC V2.00 B2112,2013-03-30 21:18:00,
2013-03-30 17:23:00,65.5,29.7,30.01,SSW,200,0.0,0.0,26,0.00,,,0.00,LWC V2.00 B2112,2013-03-30 21:23:00,
2013-03-30 17:28:00,65.3,33.1,30.01,SSW,201,0.0,0.0,30,0.00,,,0.00,LWC V2.00 B2112,2013-03-30 21:28:00,
2013-03-30 17:33:00,65.6,30.7,30.00,SW,228,0.0,0.0,27,0.00,,,0.00,LWC V2.00 B2112,2013-03-30 21:33:00,
2013-03-30 17:43:00,66.1,30.2,30.00,SW,225,0.0,0.0,26,0.00,,,0.00,LWC V2.00 B2112,2013-03-30 21:43:00,
2013-03-30 17:48:00,66.3,31.3,30.00,ESE,115,0.0,0.0,27,0.00,,,0.00,LWC V2.00 B2112,2013-03-30 21:48:00,
2013-03-30 17:53:00,65.6,32.5,30.00,SSW,192,0.0,0.0,29,0.00,,,0.00,LWC V2.00 B2112,2013-03-30 21:53:00,
2013-03-30 17:58:00,64.7,31.7,30.00,SSW,195,0.0,0.0,29,0.00,,,0.00,LWC V2.00 B2112,2013-03-30 21:58:00,
2013-03-30 18:03:00,64.3,31.4,30.00,SSW,198,0.0,0.0,29,0.00,,,0.00,LWC V2.00 B2112,2013-03-30 22:03:00,
2013-03-30 18:08:00,64.2,30.4,30.00,SSW,198,0.0,0.0,28,0.00,,,0.00,LWC V2.00 B2112,2013-03-30 22:08:00,
2013-03-30 18:13:00,64.0,30.2,30.00,SSW,198,0.0,0.0,28,0.00,,,0.00,LWC V2.00 B2112,2013-03-30 22:13:00,
2013-03-30 18:18:00,64.2,30.4,30.01,SSW,198,0.0,0.0,28,0.00,,,0.00,LWC V2.00 B2112,2013-03-30 22:18:00,
2013-03-30 18:23:00,64.5,30.7,30.01,SSW,198,0.0,0.0,28,0.00,,,0.00,LWC V2.00 B2112,2013-03-30 22:23:00,
2013-03-30 18:28:00,64.3,32.2,30.01,SSW,198,0.0,0.0,30,0.00,,,0.00,LWC V2.00 B2112,2013-03-30 22:28:00,
2013-03-30 18:33:00,64.2,32.1,30.01,SSW,198,0.0,0.0,30,0.00,,,0.00,LWC V2.00 B2112,2013-03-30 22:33:00,
2013-03-30 18:38:00,64.0,31.9,30.01,SSW,198,0.0,0.0,30,0.00,,,0.00,LWC V2.00 B2112,2013-03-30 22:38:00,
2013-03-30 18:43:00,63.9,32.7,30.01,SSW,198,0.0,0.0,31,0.00,,,0.00,LWC V2.00 B2112,2013-03-30 22:43:00,
2013-03-30 18:48:00,63.5,33.1,30.01,SSW,198,0.0,0.0,32,0.00,,,0.00,LWC V2.00 B2112,2013-03-30 22:48:00,
2013-03-30 18:53:00,63.2,34.4,30.01,SSW,204,0.0,0.0,34,0.00,,,0.00,LWC V2.00 B2112,2013-03-30 22:53:00,
2013-03-30 18:58:00,62.9,34.8,30.01,SSW,204,0.0,0.0,35,0.00,,,0.00,LWC V2.00 B2112,2013-03-30 22:58:00,
2013-03-30 19:03:00,62.4,35.1,30.01,SSW,204,0.0,0.0,36,0.00,,,0.00,LWC V2.00 B2112,2013-03-30 23:03:00,
2013-03-30 19:08:00,62.0,35.4,30.01,SSW,203,0.0,0.0,37,0.00,,,0.00,LWC V2.00 B2112,2013-03-30 23:08:00,
2013-03-30 19:13:00,61.5,35.0,30.01,SSW,203,0.0,0.0,37,0.00,,,0.00,LWC V2.00 B2112,2013-03-30 23:13:00,
2013-03-30 19:18:00,60.9,35.8,30.01,SSW,203,0.0,0.0,39,0.00,,,0.00,LWC V2.00 B2112,2013-03-30 23:18:00,
2013-03-30 19:23:00,60.2,35.8,30.01,SSW,203,0.0,0.0,40,0.00,,,0.00,LWC V2.00 B2112,2013-03-30 23:23:00,
2013-03-30 19:28:00,59.6,35.9,30.01,South,174,0.0,0.0,41,0.00,,,0.00,LWC V2.00 B2112,2013-03-30 23:28:00,
2013-03-30 19:33:00,59.3,36.2,30.02,South,174,0.0,0.0,42,0.00,,,0.00,LWC V2.00 B2112,2013-03-30 23:33:00,
2013-03-30 19:38:00,59.0,35.9,30.02,South,174,0.0,0.0,42,0.00,,,0.00,LWC V2.00 B2112,2013-03-30 23:38:00,
2013-03-30 19:43:00,58.7,36.3,30.02,South,174,0.0,0.0,43,0.00,,,0.00,LWC V2.00 B2112,2013-03-30 23:43:00,
2013-03-30 19:48:00,58.4,36.0,30.02,South,174,0.0,0.0,43,0.00,,,0.00,LWC V2.00 B2112,2013-03-30 23:48:00,
2013-03-30 19:53:00,58.1,36.3,30.02,South,174,0.0,0.0,44,0.00,,,0.00,LWC V2.00 B2112,2013-03-30 23:53:00,
2013-03-30 19:58:00,58.0,36.8,30.02,South,174,0.0,0.0,45,0.00,,,0.00,LWC V2.00 B2112,2013-03-30 23:58:00,
2013-03-30 20:03:00,57.8,36.6,30.02,South,174,0.0,0.0,45,0.00,,,0.00,LWC V2.00 B2112,2013-03-31 00:03:00,
2013-03-30 20:08:00,57.5,36.3,30.02,South,174,0.0,0.0,45,0.00,,,0.00,LWC V2.00 B2112,2013-03-31 00:08:00,
2013-03-30 20:13:00,57.3,36.7,30.02,South,174,0.0,0.0,46,0.00,,,0.00,LWC V2.00 B2112,2013-03-31 00:13:00,
2013-03-30 20:18:00,57.0,37.0,30.02,South,174,0.0,0.0,47,0.00,,,0.00,LWC V2.00 B2112,2013-03-31 00:18:00,
2013-03-30 20:23:00,56.9,36.9,30.02,South,174,0.0,0.0,47,0.00,,,0.00,LWC V2.00 B2112,2013-03-31 00:23:00,
2013-03-30 20:28:00,56.7,37.2,30.02,South,174,0.0,0.0,48,0.00,,,0.00,LWC V2.00 B2112,2013-03-31 00:28:00,
2013-03-30 20:33:00,56.6,37.1,30.03,South,174,0.0,0.0,48,0.00,,,0.00,LWC V2.00 B2112,2013-03-31 00:33:00,
2013-03-30 20:38:00,56.5,37.6,30.03,South,174,0.0,0.0,49,0.00,,,0.00,LWC V2.00 B2112,2013-03-31 00:38:00,
2013-03-30 20:43:00,56.3,37.9,30.03,South,174,0.0,0.0,50,0.00,,,0.00,LWC V2.00 B2112,2013-03-31 00:43:00,
2013-03-30 20:48:00,55.9,37.5,30.03,South,174,0.0,0.0,50,0.00,,,0.00,LWC V2.00 B2112,2013-03-31 00:48:00,
2013-03-30 20:53:00,55.7,37.9,30.03,South,174,0.0,0.0,51,0.00,,,0.00,LWC V2.00 B2112,2013-03-31 00:53:00,
2013-03-30 20:58:00,55.4,37.6,30.03,South,174,0.0,0.0,51,0.00,,,0.00,LWC V2.00 B2112,2013-03-31 00:58:00,
2013-03-30 21:03:00,55.1,37.8,30.03,South,174,0.0,0.0,52,0.00,,,0.00,LWC V2.00 B2112,2013-03-31 01:03:00,
2013-03-30 21:08:00,55.0,37.7,30.03,South,174,0.0,0.0,52,0.00,,,0.00,LWC V2.00 B2112,2013-03-31 01:08:00,
2013-03-30 21:13:00,54.8,38.0,30.03,South,174,0.0,0.0,53,0.00,,,0.00,LWC V2.00 B2112,2013-03-31 01:13:00,
2013-03-30 21:18:00,54.7,37.9,30.03,South,174,0.0,0.0,53,0.00,,,0.00,LWC V2.00 B2112,2013-03-31 01:18:00,
2013-03-30 21:23:00,54.5,38.2,30.03,South,174,0.0,0.0,54,0.00,,,0.00,LWC V2.00 B2112,2013-03-31 01:23:00,
2013-03-30 21:28:00,54.5,38.2,30.03,South,174,0.0,0.0,54,0.00,,,0.00,LWC V2.00 B2112,2013-03-31 01:28:00,
2013-03-30 21:33:00,54.7,38.4,30.04,South,174,0.0,0.0,54,0.00,,,0.00,LWC V2.00 B2112,2013-03-31 01:33:00,
2013-03-30 21:38:00,54.7,38.9,30.04,South,174,0.0,0.0,55,0.00,,,0.00,LWC V2.00 B2112,2013-03-31 01:38:00,
2013-03-30 21:43:00,54.7,38.9,30.04,South,174,0.0,0.0,55,0.00,,,0.00,LWC V2.00 B2112,2013-03-31 01:43:00,
2013-03-30 21:48:00,54.5,38.7,30.03,South,174,0.0,0.0,55,0.00,,,0.00,LWC V2.00 B2112,2013-03-31 01:48:00,
2013-03-30 21:53:00,54.7,39.3,30.03,South,174,0.0,0.0,56,0.00,,,0.00,LWC V2.00 B2112,2013-03-31 01:53:00,
2013-03-30 21:58:00,54.8,39.9,30.03,SSE,148,0.0,0.0,57,0.00,,,0.00,LWC V2.00 B2112,2013-03-31 01:58:00,
2013-03-30 22:08:00,54.5,39.6,30.03,SSE,148,0.0,0.0,57,0.00,,,0.00,LWC V2.00 B2112,2013-03-31 02:08:00,
2013-03-30 22:13:00,54.4,39.5,30.03,SSE,148,0.0,0.0,57,0.00,,,0.00,LWC V2.00 B2112,2013-03-31 02:13:00,
2013-03-30 22:18:00,54.2,39.7,30.02,SSE,148,0.0,0.0,58,0.00,,,0.00,LWC V2.00 B2112,2013-03-31 02:18:00,
2013-03-30 22:23:00,54.1,40.1,30.02,SSE,158,0.0,0.0,59,0.00,,,0.00,LWC V2.00 B2112,2013-03-31 02:23:00,
2013-03-30 22:29:00,53.9,39.9,30.02,SSE,156,0.0,0.0,59,0.00,,,0.00,LWC V2.00 B2112,2013-03-31 02:29:00,
2013-03-30 22:38:00,53.9,40.3,30.02,SSW,209,0.0,0.0,60,0.00,,,0.00,LWC V2.00 B2112,2013-03-31 02:38:00,
2013-03-30 22:43:00,53.8,40.2,30.02,SSW,209,0.0,0.0,60,0.00,,,0.00,LWC V2.00 B2112,2013-03-31 02:43:00,
2013-03-30 22:48:00,53.6,40.5,30.02,East,90,0.0,0.0,61,0.00,,,0.00,LWC V2.00 B2112,2013-03-31 02:48:00,
2013-03-30 22:53:00,53.5,40.4,30.02,East,90,0.0,0.0,61,0.00,,,0.00,LWC V2.00 B2112,2013-03-31 02:53:00,
2013-03-30 22:58:00,53.3,40.6,30.02,SSE,162,0.0,0.0,62,0.00,,,0.00,LWC V2.00 B2112,2013-03-31 02:58:00,
2013-03-30 23:03:00,53.5,40.8,30.02,South,178,0.0,0.0,62,0.00,,,0.00,LWC V2.00 B2112,2013-03-31 03:03:00,
2013-03-30 23:08:00,53.5,40.8,30.02,SW,236,0.0,0.0,62,0.00,,,0.00,LWC V2.00 B2112,2013-03-31 03:08:00,
2013-03-30 23:13:00,53.5,41.2,30.02,SW,234,0.0,0.0,63,0.00,,,0.00,LWC V2.00 B2112,2013-03-31 03:13:00,
2013-03-30 23:18:00,53.5,41.2,30.02,SSW,200,0.0,0.0,63,0.00,,,0.00,LWC V2.00 B2112,2013-03-31 03:18:00,
2013-03-30 23:23:00,53.3,41.0,30.02,SSW,200,0.0,0.0,63,0.00,,,0.00,LWC V2.00 B2112,2013-03-31 03:23:00,
2013-03-30 23:28:00,53.3,41.4,30.02,SSW,200,0.0,0.0,64,0.00,,,0.00,LWC V2.00 B2112,2013-03-31 03:28:00,
2013-03-30 23:33:00,53.2,41.3,30.02,South,169,0.0,0.0,64,0.00,,,0.00,LWC V2.00 B2112,2013-03-31 03:33:00,
2013-03-30 23:38:00,53.2,41.7,30.02,South,190,0.0,0.0,65,0.00,,,0.00,LWC V2.00 B2112,2013-03-31 03:38:00,
2013-03-30 23:43:00,52.9,41.5,30.02,South,190,0.0,0.0,65,0.00,,,0.00,LWC V2.00 B2112,2013-03-31 03:43:00,
2013-03-30 23:48:00,53.1,42.0,30.01,SSW,198,0.0,0.0,66,0.00,,,0.00,LWC V2.00 B2112,2013-03-31 03:48:00,
2013-03-30 23:58:00,52.6,41.6,30.01,SSW,198,0.0,0.0,66,0.00,,,0.00,LWC V2.00 B2112,2013-03-31 03:58:00,